EW7146 Weather Reports


time (UTC)temp
C
wind
direction
speed
KPH
gust
KPH
rain 1hr
cm
rain 24hr
cm
rain mn
cm
humidity
%
barometer
mb
20260505041531 18 234 1.6 3.2 0.00 0.00 0.00 43 1021.0
20260505041031 18 234 1.6 3.2 0.00 0.00 0.00 44 1020.9
20260505040530 18 233 0.0 3.2 0.00 0.00 0.00 45 1020.8
20260505040032 18 257 3.2 3.2 0.00 0.00 0.00 43 1020.7
20260505035530 18 214 0.0 0.0 0.00 0.00 0.00 44 1020.7
20260505035032 18 214 0.0 0.0 0.00 0.00 0.00 43 1020.6
20260505034802 18 214 0.0 0.0 0.00 0.00 0.00 45 1020.5
20260505034030 18 214 0.0 0.0 0.00 0.00 0.00 44 1020.4
20260505033531 19 214 0.0 1.6 0.00 0.00 0.00 44 1020.4
20260505033030 19 214 0.0 3.2 0.00 0.00 0.00 41 1020.3
20260505032531 19 220 1.6 3.2 0.00 0.00 0.00 42 1020.2
20260505032029 20 238 1.6 4.8 0.00 0.00 0.00 42 1020.2
20260505031532 20 209 0.0 4.8 0.00 0.00 0.00 39 1020.1
20260505031030 20 210 1.6 3.2 0.00 0.00 0.00 39 1019.9
20260505030803 20 231 1.6 3.2 0.00 0.00 0.00 40 1019.9
20260505030029 20 220 0.0 3.2 0.00 0.00 0.00 38 1019.8
20260505025529 21 252 1.6 3.2 0.00 0.00 0.00 39 1019.8
20260505025030 21 219 0.0 1.6 0.00 0.00 0.00 37 1019.6
20260505024528 21 219 0.0 1.6 0.00 0.00 0.00 37 1019.8
20260505024259 21 223 1.6 3.2 0.00 0.00 0.00 37 1019.6
20260505023529 21 223 0.0 3.2 0.00 0.00 0.00 37 1019.6
20260505023306 21 234 0.0 3.2 0.00 0.00 0.00 37 1019.5
20260505022529 22 243 1.6 3.2 0.00 0.00 0.00 37 1019.6
20260505022030 22 255 1.6 3.2 0.00 0.00 0.00 36 1019.5
20260505021529 23 258 0.0 3.2 0.00 0.00 0.00 34 1019.4
20260505021028 23 255 1.6 3.2 0.00 0.00 0.00 34 1019.4
20260505020528 24 278 0.0 1.6 0.00 0.00 0.00 33 1019.4
20260505020516 25 261 0.0 1.6 0.00 0.00 0.00 31 1019.5
20260505015529 25 295 0.0 0.0 0.00 0.00 0.00 29 1019.4
20260505015029 26 295 0.0 6.4 0.00 0.00 0.00 27 1019.3
20260505014531 26 295 0.0 6.4 0.00 0.00 0.00 26 1019.3
20260505014030 27 258 0.0 11.3 0.00 0.00 0.00 25 1019.2
20260505013532 27 309 3.2 11.3 0.00 0.00 0.00 23 1019.3
20260505013028 27 289 3.2 8.0 0.00 0.00 0.00 23 1019.3
20260505012527 27 281 0.0 6.4 0.00 0.00 0.00 24 1019.3
20260505012027 27 293 3.2 9.7 0.00 0.00 0.00 23 1019.3
20260505012010 27 274 3.2 11.3 0.00 0.00 0.00 22 1019.4
20260505011028 27 243 4.8 11.3 0.00 0.00 0.00 22 1019.4
20260505010801 28 321 8.0 11.3 0.00 0.00 0.00 21 1019.4
20260505010029 28 285 1.6 9.7 0.00 0.00 0.00 23 1019.5
20260505005529 28 276 3.2 8.0 0.00 0.00 0.00 23 1019.4
20260505005030 28 268 1.6 8.0 0.00 0.00 0.00 22 1019.5
20260505004526 27 254 1.6 9.7 0.00 0.00 0.00 23 1019.5
20260505004041 27 285 3.2 11.3 0.00 0.00 0.00 23 1019.4
20260505003531 27 265 3.2 11.3 0.00 0.00 0.00 23 1019.5
20260505003025 27 310 1.6 6.4 0.00 0.00 0.00 22 1019.4
20260505002528 27 264 1.6 6.4 0.00 0.00 0.00 23 1019.5
20260505002026 28 265 1.6 11.3 0.00 0.00 0.00 23 1019.6
20260505001528 28 262 3.2 11.3 0.00 0.00 0.00 23 1019.5
20260505001026 28 262 3.2 11.3 0.00 0.00 0.00 23 1019.4
20260505000527 28 290 3.2 11.3 0.00 0.00 0.00 22 1019.5
20260505000028 28 49 4.8 11.3 0.00 0.00 0.00 22 1019.5
20260504235755 28 259 6.4 11.3 0.00 0.00 0.00 22 1019.5
20260504235031 30 296 3.2 8.0 0.00 0.00 0.00 21 1019.5
20260504234526 29 268 1.6 8.0 0.00 0.00 0.00 22 1019.5
20260504234030 28 276 1.6 9.7 0.00 0.00 0.00 24 1019.5
20260504233525 28 306 3.2 17.7 0.00 0.00 0.00 22 1019.6
20260504233026 28 292 4.8 17.7 0.00 0.00 0.00 21 1019.5
20260504232530 29 283 3.2 11.3 0.00 0.00 0.00 21 1019.6
20260504232258 29 333 4.8 11.3 0.00 0.00 0.00 21 1019.5
20260504231525 28 306 6.4 11.3 0.00 0.00 0.00 22 1019.5
20260504231025 28 329 0.0 9.7 0.00 0.00 0.00 22 1019.6
20260504230536 28 302 3.2 9.7 0.00 0.00 0.00 23 1019.8
20260504230025 28 285 0.0 14.5 0.00 0.00 0.00 22 1019.8
20260504225528 28 282 0.0 14.5 0.00 0.00 0.00 23 1019.8
20260504225255 29 278 3.2 11.3 0.00 0.00 0.00 21 1019.9
20260504224748 29 0 3.2 11.3 0.00 0.00 0.00 21 1019.9
20260504224023 29 264 3.2 16.1 0.00 0.00 0.00 21 1019.9
20260504223524 29 257 3.2 16.1 0.00 0.00 0.00 20 1019.9
20260504223024 29 4 3.2 17.7 0.00 0.00 0.00 21 1019.9
20260504222523 29 281 9.7 17.7 0.00 0.00 0.00 19 1020.0
20260504222024 30 320 3.2 19.3 0.00 0.00 0.00 23 1020.0
20260504221523 29 300 0.0 19.3 0.00 0.00 0.00 22 1019.9
20260504221024 30 266 3.2 11.3 0.00 0.00 0.00 20 1020.0
20260504220523 29 281 1.6 11.3 0.00 0.00 0.00 22 1020.0
20260504220024 28 279 6.4 11.3 0.00 0.00 0.00 20 1020.1
20260504215751 28 307 3.2 11.3 0.00 0.00 0.00 21 1020.2
20260504215022 28 285 4.8 19.3 0.00 0.00 0.00 21 1020.3
20260504214523 28 279 4.8 19.3 0.00 0.00 0.00 22 1020.3
20260504214021 28 54 4.8 14.5 0.00 0.00 0.00 20 1020.4
20260504213523 28 52 1.6 16.1 0.00 0.00 0.00 23 1020.4
20260504213024 28 275 8.0 16.1 0.00 0.00 0.00 20 1020.4
20260504212523 28 268 4.8 17.7 0.00 0.00 0.00 21 1020.4
20260504212021 28 269 8.0 17.7 0.00 0.00 0.00 21 1020.5
20260504211523 28 262 9.7 20.9 0.00 0.00 0.00 20 1020.5
20260504211021 28 258 4.8 20.9 0.00 0.00 0.00 20 1020.4
20260504210521 28 255 4.8 9.7 0.00 0.00 0.00 22 1020.5
20260504210245 28 348 1.6 20.9 0.00 0.00 0.00 22 1020.5
20260504205752 28 319 3.2 20.9 0.00 0.00 0.00 21 1020.6
20260504205023 28 317 11.3 19.3 0.00 0.00 0.00 21 1020.5
20260504204750 28 317 6.4 17.7 0.00 0.00 0.00 21 1020.6
20260504204022 28 286 4.8 17.7 0.00 0.00 0.00 22 1020.7
20260504203522 27 336 9.7 17.7 0.00 0.00 0.00 21 1020.7
20260504203020 27 303 6.4 17.7 0.00 0.00 0.00 22 1020.7
20260504202521 27 282 8.0 17.7 0.00 0.00 0.00 21 1020.7
20260504202021 27 295 8.0 17.7 0.00 0.00 0.00 21 1020.8
20260504201521 27 276 9.7 20.9 0.00 0.00 0.00 21 1020.9
20260504201019 27 320 6.4 20.9 0.00 0.00 0.00 23 1020.9
20260504200521 27 300 9.7 17.7 0.00 0.00 0.00 21 1020.9
20260504200020 27 155 8.0 20.9 0.00 0.00 0.00 22 1021.0
20260504195522 27 262 9.7 20.9 0.00 0.00 0.00 22 1021.0
20260504195020 27 269 6.4 20.9 0.00 0.00 0.00 22 1021.0
20260504194519 27 265 11.3 20.9 0.00 0.00 0.00 20 1021.0
20260504194020 27 300 3.2 20.9 0.00 0.00 0.00 22 1021.0
20260504193746 27 240 12.9 20.9 0.00 0.00 0.00 22 1021.1
20260504193243 27 285 9.7 20.9 0.00 0.00 0.00 23 1021.0
20260504192520 27 269 6.4 16.1 0.00 0.00 0.00 24 1021.1
20260504192020 26 307 4.8 17.7 0.00 0.00 0.00 25 1021.4
20260504191520 26 288 9.7 17.7 0.00 0.00 0.00 23 1021.4
20260504191021 26 314 4.8 17.7 0.00 0.00 0.00 24 1021.5
20260504190518 26 264 8.0 16.1 0.00 0.00 0.00 24 1021.5
20260504190019 26 283 9.7 19.3 0.00 0.00 0.00 23 1021.7
20260504185519 26 303 12.9 19.3 0.00 0.00 0.00 23 1021.8
20260504185019 26 264 6.4 16.1 0.00 0.00 0.00 23 1021.7
20260504184737 26 269 9.7 17.7 0.00 0.00 0.00 23 1021.8
20260504184018 26 281 4.8 30.6 0.00 0.00 0.00 23 1021.9
20260504184008 25 258 14.5 30.6 0.00 0.00 0.00 23 1021.8
20260504183254 26 265 11.3 20.9 0.00 0.00 0.00 23 1021.9
20260504182520 26 295 6.4 20.9 0.00 0.00 0.00 25 1021.9
20260504182018 25 266 3.2 17.7 0.00 0.00 0.00 26 1022.0
20260504181519 25 289 9.7 17.7 0.00 0.00 0.00 24 1022.0
20260504181239 26 290 8.0 16.1 0.00 0.00 0.00 24 1022.0
20260504180514 26 290 3.2 14.5 0.00 0.00 0.00 24 1022.0
20260504180018 26 226 3.2 17.7 0.00 0.00 0.00 24 1022.0
20260504175518 25 271 6.4 17.7 0.00 0.00 0.00 25 1022.0
20260504175019 25 276 6.4 19.3 0.00 0.00 0.00 25 1022.0
20260504174518 25 275 8.0 19.3 0.00 0.00 0.00 25 1022.1
20260504174459 25 290 9.7 19.3 0.00 0.00 0.00 25 1022.1
20260504173517 25 279 4.8 19.3 0.00 0.00 0.00 26 1022.1
20260504173017 25 324 8.0 19.3 0.00 0.00 0.00 26 1022.1
20260504172518 25 265 9.7 17.7 0.00 0.00 0.00 25 1022.3
20260504172016 25 271 1.6 16.1 0.00 0.00 0.00 27 1022.3
20260504171518 24 275 0.0 11.3 0.00 0.00 0.00 30 1022.3
20260504171016 23 243 1.6 8.0 0.00 0.00 0.00 34 1022.5
20260504170745 23 309 1.6 6.4 0.00 0.00 0.00 32 1022.4
20260504151011 15 56 0.0 3.2 0.00 0.00 0.00 52 1023.9
20260504150513 15 76 1.6 3.2 0.00 0.00 0.00 54 1024.0
20260504141012 8 66 0.0 0.0 0.00 0.00 0.00 74 1023.9
20260504140512 8 66 0.0 0.0 0.00 0.00 0.00 75 1024.0
20260504130511 5 155 0.0 1.6 0.00 0.00 0.00 78 1023.8
20260504120237 6 128 0.0 1.6 0.00 0.00 0.00 73 1023.6
20260504110509 8 154 0.0 0.0 0.00 0.00 0.00 70 1023.5
20260504100508 8 142 0.0 0.0 0.00 0.00 0.00 66 1023.6
20260504082004 11 200 3.2 3.2 0.00 0.00 0.00 56 1023.3
20260504081505 11 200 0.0 4.8 0.00 0.00 0.00 55 1023.2
20260504081004 12 216 1.6 4.8 0.00 0.00 0.00 55 1023.2
20260504080948 12 213 3.2 4.8 0.00 0.00 0.00 55 1023.2
20260504050500 16 209 1.6 6.4 0.00 0.00 0.00 42 1022.6
20260504050001 16 137 3.2 6.4 0.00 0.00 0.00 42 1022.5
20260504045459 16 157 0.0 8.0 0.00 0.00 0.00 42 1022.4
20260504045001 16 289 4.8 8.0 0.00 0.00 0.00 43 1022.4
20260504044500 16 104 0.0 3.2 0.00 0.00 0.00 39 1022.3
20260504044000 17 244 0.0 3.2 0.00 0.00 0.00 39 1022.2
20260504043500 17 248 1.6 3.2 0.00 0.00 0.00 38 1022.2
20260504043000 17 234 1.6 4.8 0.00 0.00 0.00 39 1022.2
20260504042943 16 285 3.2 4.8 0.00 0.00 0.00 40 1022.1
20260504041959 16 221 1.6 3.2 0.00 0.00 0.00 41 1022.1